User: anonymous   Login
Location: Unspecified
(0.0000°N, 0.0000°E)
Time: 09:14:40
(UTC+00:00)
Language:

UHF F/O F4 - Orbit

View from above orbital plane
View from above orbital plane
View from above satellite
View from above satellite

Ground track
Ground track

The orbit data is extracted from the following two-line orbital elements,

1 23467U 95003A   17254.37914696 0.00000000  00000-0  00000-0 0    06
2 23467   9.6831  26.9470 0008128  10.9555 349.0872  1.00270000    06
Epoch (UTC): 11 September 2017 09:05:58
Eccentricity: 0.0008128
inclination: 9.6831°
perigee height: 35752 km
apogee height: 35821 km
right ascension of ascending node: 26.9470°
argument of perigee: 10.9555°
revolutions per day: 1.00270000
mean anomaly at epoch: 349.0872°
orbit number at epoch: 0

The dashed part of the orbit path shows where the satellite is in the earth's shadow,  

DLR